Weather History for Whitefield, NH

Change the Weather History Date:

Thursday, October 3, 2013

  Actual Average Record
Temperature  
Mean Temperature 54 °F -  
Max Temperature 71 °F 59 °F 78 °F (2005)
Min Temperature 37 °F 31 °F 28 °F (1997)
Degree Days  
Heating Degree Days 11    
Growing Degree Days 4 (Base 50)    
Moisture  
Dew Point 42 °F    
Average Humidity 72    
Maximum Humidity 92    
Minimum Humidity 38    
Precipitation  
Precipitation 0.01 in - - ()
Sea Level Pressure  
Sea Level Pressure 30.07 in    
Wind  
Wind Speed 1 mph (WNW)    
Max Wind Speed 10 mph    
Max Gust Speed -    
Visibility 10 miles    
Events      
Averages and records for this station are not official NWS values.
T = Trace of Precipitation, MM = Missing Value Source: NWS Daily Summary

Daily Weather History Graph

Daily Weather History Graph

Search for Another Location

Airport:

Trip Planner

Search our weather history database for the weather conditions in past years. The results will help you decide how hot, cold, wet, or windy it might be!

Date:

Astronomy

Oct. 03, 2013 Rise Set
Actual Time 6:46 AM EDT 6:22 PM EDT
Civil Twilight 6:17 AM EDT 6:51 PM EDT
Nautical Twilight 5:44 AM EDT 7:25 PM EDT
Astronomical Twilight 5:09 AM EDT 7:59 PM EDT
Moon 5:14 AM EDT (10/3) 5:30 PM EDT (10/3)
Length of Visible Light 12h 34m
Length of Day
11h 36m
Waning Crescent, 2% of the Moon is Illuminated
Oct 3
Waning Crescent
Oct 4
New
Oct 11
First Quarter
Oct 18
Full
Oct 26
Last Quarter

Hourly Weather History & Observations

Time (EDT) Temp. Dew Point Humidity Pressure Visibility Wind Dir Wind Speed Gust Speed Precip Events Conditions
12:52 AM 44.1 °F 41.0 °F 89% 29.99 in 8.0 mi Calm Calm - N/A   Clear
1:52 AM 42.1 °F 39.9 °F 92% 30.00 in 8.0 mi Calm Calm - N/A   Clear
2:52 AM 41.0 °F 37.0 °F 86% 30.01 in 10.0 mi Calm Calm - N/A   Clear
3:52 AM 39.9 °F 37.0 °F 89% 30.02 in 10.0 mi Calm Calm - N/A   Clear
4:52 AM 37.9 °F 35.1 °F 89% 30.04 in 10.0 mi Calm Calm - N/A   Clear
5:52 AM 37.9 °F 35.1 °F 89% 30.04 in 10.0 mi Calm Calm - N/A   Clear
6:52 AM 37.0 °F 34.0 °F 89% 30.08 in 10.0 mi Calm Calm - 0.01 in   Clear
7:52 AM 41.0 °F 37.9 °F 89% 30.11 in 10.0 mi Calm Calm - N/A   Clear
8:52 AM 50.0 °F 45.0 °F 83% 30.11 in 10.0 mi Calm Calm - N/A   Clear
9:52 AM 59.0 °F 50.0 °F 72% 30.12 in 10.0 mi Calm Calm - N/A   Clear
10:52 AM 64.9 °F 46.0 °F 50% 30.11 in 10.0 mi Variable 3.5 mph - N/A   Clear
11:52 AM 66.0 °F 45.0 °F 47% 30.09 in 10.0 mi Variable 4.6 mph - N/A   Clear
12:52 PM 68.0 °F 44.1 °F 42% 30.09 in 10.0 mi West 9.2 mph - N/A   Clear
1:52 PM 69.1 °F 45.0 °F 42% 30.07 in 10.0 mi West 10.4 mph - N/A   Clear
2:52 PM 69.1 °F 44.1 °F 40% 30.06 in 10.0 mi Variable 5.8 mph - N/A   Clear
3:52 PM 71.1 °F 44.1 °F 38% 30.05 in 10.0 mi WNW 6.9 mph - N/A   Clear
4:52 PM 70.0 °F 44.1 °F 39% 30.05 in 10.0 mi West 4.6 mph - N/A   Clear
5:52 PM 63.0 °F 48.0 °F 58% 30.06 in 10.0 mi Calm Calm - N/A   Clear
6:52 PM 55.0 °F 48.9 °F 80% 30.08 in 10.0 mi Calm Calm - N/A   Clear
7:52 PM 50.0 °F 46.0 °F 86% 30.09 in 10.0 mi Calm Calm - N/A   Clear
8:52 PM 48.0 °F 43.0 °F 83% 30.10 in 10.0 mi Calm Calm - N/A   Clear
9:52 PM 44.1 °F 41.0 °F 89% 30.11 in 10.0 mi Calm Calm - N/A   Clear
10:52 PM 42.1 °F 39.0 °F 89% 30.11 in 10.0 mi Calm Calm - N/A   Clear